Weather History for KPTS - September, 2012

Change the Weather History Date:

Monday, September 3, 2012

  Actual Average (KJLN) Record (KJLN)
Temperature  
Mean Temperature 84 °F 76 °F  
Max Temperature 98 °F 88 °F 102 °F (1954)
Min Temperature 70 °F 65 °F 45 °F (1974)
Degree Days  
Heating Degree Days 0 0  
Month to date heating degree days 0  
Since 1 July heating degree days 1  
Cooling Degree Days 19 11  
Month to date cooling degree days 34  
Year to date cooling degree days 1461  
Growing Degree Days 34 (Base 50)    
Moisture  
Dew Point 73 °F    
Average Humidity 71    
Maximum Humidity 100    
Minimum Humidity 42    
Precipitation  
Precipitation 0.00 in 0.16 in 2.73 in (2008)
Month to date precipitation 0.48  
Year to date precipitation 31.45  
Sea Level Pressure  
Sea Level Pressure 29.88 in    
Wind  
Wind Speed 3 mph (SSE)    
Max Wind Speed 7 mph    
Max Gust Speed -    
Visibility 10 miles    
Events      
T = Trace of Precipitation, MM = Missing Value Source: NWS Daily Summary

Daily Weather History Graph

Daily Weather History Graph

Search for Another Location

Airport or City:

Trip Planner

Search our weather history database for the weather conditions in past years. The results will help you decide how hot, cold, wet, or windy it might be!

Date:

Astronomy

Sep. 03, 2012 Rise Set
Actual Time 6:51 AM CDT 7:44 PM CDT
Civil Twilight 6:24 AM CDT 8:10 PM CDT
Nautical Twilight 5:53 AM CDT 8:42 PM CDT
Astronomical Twilight 5:20 AM CDT 9:14 PM CDT
Moon 9:09 PM CDT (9/3) 9:55 AM CDT (9/3)
Length of Visible Light 13h 45m
Length of Day
12h 52m
Waning Gibbous, 90% of the Moon is Illuminated
Sep 3
Waning Gibbous
Sep 8
Last Quarter
Sep 15
New
Sep 22
First Quarter
Sep 29
Full

Hourly Weather History & Observations

Time (CDT) Temp. Heat Index Dew Point Humidity Pressure Visibility Wind Dir Wind Speed Gust Speed Precip Events Conditions
12:15 AM 76.1 °F - 71.8 °F 86% 29.90 in 10.0 mi East 4.6 mph - N/A   Clear
12:35 AM 76.1 °F - 71.1 °F 84% 29.90 in 10.0 mi Calm Calm - N/A   Clear
12:55 AM 76.1 °F - 70.3 °F 82% 29.90 in 10.0 mi East 4.6 mph - N/A   Clear
1:15 AM 76.1 °F - 71.4 °F 85% 29.90 in 10.0 mi SE 3.5 mph - N/A   Clear
1:35 AM 76.1 °F - 71.6 °F 86% 29.90 in 10.0 mi ESE 3.5 mph - N/A   Clear
1:55 AM 76.1 °F - 72.7 °F 89% 29.90 in 10.0 mi SE 3.5 mph - N/A   Clear
2:15 AM 76.1 °F - 73.0 °F 90% 29.90 in 10.0 mi SE 3.5 mph - N/A   Clear
2:35 AM 76.1 °F - 73.9 °F 93% 29.90 in 10.0 mi SSE 4.6 mph - N/A   Clear
2:55 AM 75.0 °F - 74.3 °F 98% 29.91 in 10.0 mi Calm Calm - N/A   Clear
3:15 AM 75.0 °F - 74.5 °F 98% 29.90 in 10.0 mi East 4.6 mph - N/A   Clear
3:35 AM 76.1 °F - 75.4 °F 98% 29.90 in 10.0 mi ESE 3.5 mph - N/A   Clear
3:55 AM 76.1 °F - 74.8 °F 96% 29.91 in 10.0 mi ESE 3.5 mph - N/A   Clear
4:15 AM 75.2 °F - 74.7 °F 98% 29.91 in 10.0 mi ESE 3.5 mph - N/A   Clear
4:35 AM - - - N/A% 29.91 in 10.0 mi Calm Calm - N/A   Clear
4:55 AM 73.4 °F - 73.6 °F 100% 29.90 in 10.0 mi Calm Calm - N/A   Clear
5:15 AM 73.4 °F - 73.6 °F 100% 29.90 in 10.0 mi Calm Calm - N/A   Clear
5:35 AM 71.8 °F - 72.0 °F 100% 29.91 in 10.0 mi Calm Calm - N/A   Clear
5:55 AM 71.1 °F - 71.2 °F 100% 29.90 in 10.0 mi ESE 3.5 mph - N/A   Clear
6:15 AM 70.9 °F - 71.1 °F 100% 29.91 in 10.0 mi ESE 3.5 mph - N/A   Clear
6:35 AM 70.9 °F - 71.1 °F 100% 29.91 in 10.0 mi Calm Calm - N/A   Clear
6:55 AM 70.9 °F - 71.1 °F 100% 29.92 in 10.0 mi Calm Calm - N/A   Clear
7:15 AM 70.9 °F - 71.1 °F 100% 29.92 in 10.0 mi Calm Calm - N/A   Clear
7:35 AM 72.0 °F - 72.1 °F 100% 29.92 in 10.0 mi Calm Calm - N/A   Clear
7:55 AM 74.3 °F - 74.5 °F 100% 29.92 in 10.0 mi SE 3.5 mph - N/A   Clear
8:15 AM 76.1 °F - 76.1 °F 100% 29.91 in 10.0 mi Calm Calm - N/A   Clear
8:35 AM 76.5 °F - 76.1 °F 99% 29.91 in 10.0 mi SSE 3.5 mph - N/A   Clear
8:55 AM 78.4 °F - 75.6 °F 91% 29.91 in 10.0 mi South 3.5 mph - N/A   Clear
9:15 AM 79.7 °F - 72.1 °F 78% 29.91 in 10.0 mi South 4.6 mph - N/A   Clear
9:35 AM 81.0 °F 85.2 °F 72.1 °F 74% 29.91 in 10.0 mi South 4.6 mph - N/A   Clear
9:55 AM 81.5 °F 86.1 °F 72.1 °F 73% 29.91 in 10.0 mi SSW 4.6 mph - N/A   Unknown
10:15 AM 83.3 °F 89.3 °F 72.9 °F 71% 29.91 in 10.0 mi South 3.5 mph - N/A   Clear
10:35 AM 84.7 °F 91.4 °F 73.2 °F 68% 29.92 in 10.0 mi South 4.6 mph - N/A   Clear
10:55 AM 87.1 °F 95.4 °F 73.9 °F 65% 29.91 in 10.0 mi SSW 3.5 mph - N/A   Clear
11:15 AM 89.6 °F 101.0 °F 75.7 °F 64% 29.91 in 10.0 mi SSW 4.6 mph - N/A   Clear
11:35 AM 91.0 °F 103.5 °F 76.3 °F 62% 29.91 in 10.0 mi WSW 5.8 mph - N/A   Clear
11:55 AM 91.0 °F 101.6 °F 74.8 °F 59% 29.90 in 10.0 mi Calm Calm - N/A   Clear
12:15 PM 91.0 °F 101.0 °F 74.5 °F 58% 29.90 in 10.0 mi WSW 4.6 mph - N/A   Clear
12:35 PM 91.4 °F 100.7 °F 73.9 °F 56% 29.90 in 10.0 mi Calm Calm - N/A   Clear
12:55 PM 93.2 °F 103.0 °F 73.9 °F 53% 29.90 in 10.0 mi SSE 3.5 mph - N/A   Clear
1:15 PM 96.1 °F 109.4 °F 75.7 °F 52% 29.89 in 10.0 mi SW 4.6 mph - N/A   Clear
1:35 PM 96.1 °F 108.6 °F 75.6 °F 51% 29.89 in 10.0 mi Calm Calm - N/A   Clear
1:55 PM 96.1 °F 106.3 °F 73.2 °F 48% 29.89 in 10.0 mi Calm Calm - N/A   Clear
2:15 PM 96.1 °F 106.3 °F 73.4 °F 48% 29.88 in 10.0 mi Calm Calm - N/A   Clear
2:35 PM 96.1 °F 104.2 °F 71.4 °F 45% 29.88 in 10.0 mi Calm Calm - N/A   Clear
2:55 PM 96.6 °F 104.7 °F 71.6 °F 44% 29.87 in 10.0 mi Calm Calm - N/A   Clear
3:15 PM 97.0 °F 106.2 °F 72.7 °F 45% 29.87 in 10.0 mi Calm Calm - N/A   Clear
3:35 PM 98.1 °F 107.2 °F 71.8 °F 43% 29.86 in 10.0 mi ESE 4.6 mph - N/A   Clear
3:55 PM 98.6 °F 107.7 °F 71.8 °F 42% 29.86 in 10.0 mi Calm Calm - N/A   Clear
4:15 PM 98.6 °F 107.7 °F 72.1 °F 42% 29.86 in 10.0 mi Calm Calm - N/A   Clear
4:35 PM 98.6 °F 108.4 °F 72.5 °F 43% 29.85 in 10.0 mi SSE 4.6 mph - N/A   Clear
4:55 PM 98.6 °F 109.2 °F 73.2 °F 44% 29.85 in 10.0 mi SSE 5.8 mph - N/A   Clear
5:15 PM 98.6 °F 108.4 °F 72.7 °F 43% 29.85 in 10.0 mi SSE 5.8 mph - N/A   Clear
5:35 PM 98.6 °F 109.2 °F 73.4 °F 44% 29.84 in 10.0 mi South 4.6 mph - N/A   Clear
5:55 PM 98.6 °F 109.2 °F 73.2 °F 44% 29.84 in 10.0 mi SE 5.8 mph - N/A   Clear
6:15 PM 97.5 °F 107.5 °F 73.2 °F 45% 29.84 in 10.0 mi SE 4.6 mph - N/A   Clear
6:35 PM 96.1 °F 106.3 °F 73.6 °F 48% 29.84 in 10.0 mi SE 3.5 mph - N/A   Clear
6:55 PM 96.1 °F 107.8 °F 74.7 °F 50% 29.83 in 10.0 mi SE 4.6 mph - N/A   Clear
7:15 PM 94.6 °F 106.5 °F 75.0 °F 53% 29.83 in 10.0 mi SE 3.5 mph - N/A   Clear
7:35 PM 91.4 °F 100.7 °F 73.9 °F 56% 29.83 in 10.0 mi ESE 3.5 mph - N/A   Clear
7:55 PM 91.0 °F 101.0 °F 74.3 °F 58% 29.83 in 10.0 mi ESE 3.5 mph - N/A   Clear
8:15 PM 91.0 °F 102.9 °F 76.1 °F 61% 29.83 in 10.0 mi SE 4.6 mph - N/A   Clear
8:35 PM 90.7 °F 103.8 °F 77.0 °F 64% 29.84 in 10.0 mi SE 5.8 mph - N/A   Clear
8:55 PM 89.6 °F 101.6 °F 76.5 °F 65% 29.84 in 10.0 mi SE 5.8 mph - N/A   Clear
9:15 PM 87.8 °F 98.1 °F 75.7 °F 67% 29.84 in 10.0 mi SE 5.8 mph - N/A   Clear
9:35 PM 86.2 °F 94.6 °F 74.5 °F 68% 29.84 in 10.0 mi SSE 5.8 mph - N/A   Clear
9:55 PM 85.5 °F 93.0 °F 73.8 °F 68% 29.84 in 10.0 mi SE 5.8 mph - N/A   Clear
10:15 PM 85.1 °F 92.2 °F 73.4 °F 68% 29.84 in 10.0 mi SSE 5.8 mph - N/A   Clear
10:35 PM 84.4 °F 91.3 °F 73.6 °F 70% 29.84 in 10.0 mi SSE 6.9 mph - N/A   Clear
10:55 PM 84.4 °F 91.3 °F 73.6 °F 70% 29.85 in 10.0 mi SSE 6.9 mph - N/A   Clear
11:15 PM 83.8 °F 90.4 °F 73.4 °F 71% 29.85 in 10.0 mi SE 5.8 mph - N/A   Clear
11:35 PM 83.3 °F 89.6 °F 73.4 °F 72% 29.86 in 10.0 mi SSE 4.6 mph - N/A   Clear
11:55 PM 81.7 °F 87.3 °F 73.8 °F 77% 29.86 in 10.0 mi SSE 4.6 mph - N/A   Clear